Change the Weather History Date:

Friday, January 25, 2013

  Actual Average Record
Temperature  
Mean Temperature 46 °F -  
Max Temperature 50 °F 54 °F 74 °F (2015)
Min Temperature 43 °F 40 °F 29 °F (1950)
Degree Days  
Heating Degree Days 18    
Moisture  
Dew Point 48 °F    
Average Humidity 100    
Maximum Humidity 100    
Minimum Humidity 100    
Precipitation  
Precipitation 1.10 in - - ()
Sea Level Pressure  
Sea Level Pressure 30.13 in    
Wind  
Wind Speed 4 mph (SSE)    
Max Wind Speed 9 mph    
Max Gust Speed -    
Visibility 2 miles    
Events Fog , Rain    
Averages and records for this station are not official NWS values.
T = Trace of Precipitation, MM = Missing Value Source: NWS Daily Summary

Daily Weather History Graph

Daily Weather History Graph

Search for Another Location

Airport or City:

Trip Planner

Search our weather history database for the weather conditions in past years. The results will help you decide how hot, cold, wet, or windy it might be!

Date:

Astronomy

Jan. 25, 2013 Rise Set
Actual Time 7:36 AM PST 5:23 PM PST
Civil Twilight 7:06 AM PST 5:53 PM PST
Nautical Twilight 6:32 AM PST 6:27 PM PST
Astronomical Twilight 5:59 AM PST 7:00 PM PST
Moon 4:26 PM PST (1/25) 6:19 AM PST (1/25)
Length of Visible Light 10h 47m
Length of Day
9h 47m
Waxing Gibbous, 98% of the Moon is Illuminated
Jan 25
Waxing Gibbous
Jan 26
Full
Feb 3
Last Quarter
Feb 9
New
Feb 17
First Quarter

Hourly Weather History & Observations

Time (PST) Temp. Windchill Dew Point Humidity Pressure Visibility Wind Dir Wind Speed Gust Speed Precip Events Conditions
12:56 AM 50.0 °F - 50.0 °F 100% 30.20 in 5.0 mi Variable 3.5 mph - N/A   Overcast
1:56 AM 48.9 °F - 48.9 °F 100% 30.20 in 5.0 mi East 6.9 mph - 0.00 in Rain Light Rain
2:25 AM 48.2 °F - 48.2 °F 100% 30.18 in 3.0 mi Variable 5.8 mph - 0.02 in Rain Rain
2:56 AM 48.9 °F - 48.9 °F 100% 30.19 in 8.0 mi Variable 3.5 mph - 0.03 in Rain Light Rain
3:27 AM 48.2 °F - 48.2 °F 100% 30.18 in 9.0 mi Variable 3.5 mph - 0.01 in Rain Light Rain
3:56 AM 48.2 °F - 48.2 °F 100% 30.17 in 7.0 mi East 3.5 mph - N/A Rain Light Rain
4:24 AM 48.2 °F - 48.2 °F 100% 30.17 in 4.0 mi Calm Calm - 0.02 in Rain Light Rain
4:56 AM 48.9 °F - 48.9 °F 100% 30.17 in 5.0 mi Calm Calm - 0.02 in Rain Light Rain
5:00 AM 48.2 °F - 48.2 °F 100% 30.16 in 4.0 mi Variable 3.5 mph - 0.00 in Rain Light Rain
5:07 AM 48.2 °F - 48.2 °F 100% 30.16 in 6.0 mi Variable 3.5 mph - 0.00 in Rain Light Rain
5:20 AM 48.2 °F - 48.2 °F 100% 30.15 in 10.0 mi Variable 3.5 mph - 0.00 in   Overcast
5:36 AM 48.2 °F - 48.2 °F 100% 30.15 in 7.0 mi SE 4.6 mph - 0.00 in Rain Light Rain
5:45 AM 48.2 °F - 48.2 °F 100% 30.15 in 5.0 mi ESE 4.6 mph - 0.00 in Rain Light Rain
5:56 AM 48.9 °F - 48.9 °F 100% 30.16 in 5.0 mi Variable 4.6 mph - 0.00 in   Overcast
6:15 AM 48.2 °F - 48.2 °F 100% 30.15 in 3.0 mi SSE 5.8 mph - 0.00 in Rain Light Rain
6:22 AM 48.2 °F - 48.2 °F 100% 30.15 in 1.8 mi South 6.9 mph - 0.00 in Rain Light Rain
6:24 AM 48.2 °F - 48.2 °F 100% 30.15 in 0.8 mi South 8.1 mph - 0.00 in Rain Light Rain
6:30 AM 48.2 °F - 48.2 °F 100% 30.14 in 0.2 mi SE 3.5 mph - 0.00 in Fog , Rain Light Rain
6:35 AM 48.2 °F - 48.2 °F 100% 30.14 in 0.8 mi Variable 3.5 mph - 0.00 in Rain Light Rain
6:37 AM 48.2 °F - 48.2 °F 100% 30.14 in 1.5 mi SSE 4.6 mph - 0.00 in Rain Light Rain
6:44 AM 48.2 °F - 48.2 °F 100% 30.14 in 2.5 mi Calm Calm - 0.01 in Rain Light Rain
6:56 AM 47.8 °F - 47.8 °F 100% 30.16 in 2.0 mi SSW 3.5 mph - 0.01 in Rain Light Rain
7:06 AM 48.2 °F - 48.2 °F 100% 30.16 in 1.2 mi Calm Calm - 0.03 in Rain Rain
7:11 AM 48.2 °F - 48.2 °F 100% 30.16 in 1.5 mi West 3.5 mph - 0.03 in Rain Light Rain
7:18 AM 48.2 °F - 48.2 °F 100% 30.17 in 1.0 mi Calm Calm - 0.03 in Rain Light Rain
7:27 AM 48.2 °F - 48.2 °F 100% 30.16 in 0.8 mi Variable 3.5 mph - 0.06 in Rain Rain
7:35 AM 48.2 °F - 48.2 °F 100% 30.16 in 1.2 mi SSE 4.6 mph - 0.07 in Rain Rain
7:56 AM 47.8 °F - 47.8 °F 100% 30.17 in 1.5 mi SSE 3.5 mph - 0.17 in Rain Heavy Rain
8:09 AM 48.2 °F - 48.2 °F 100% 30.16 in 2.0 mi Calm Calm - 0.06 in Rain Heavy Rain
8:25 AM 48.2 °F - 48.2 °F 100% 30.16 in 1.2 mi ESE 4.6 mph - 0.10 in Rain Rain
8:29 AM 48.2 °F - 48.2 °F 100% 30.16 in 0.8 mi SE 4.6 mph - 0.12 in Rain Heavy Rain
8:40 AM 48.2 °F - 48.2 °F 100% 30.16 in 1.2 mi SSE 4.6 mph - 0.16 in Rain Rain
8:56 AM 47.8 °F - 47.8 °F 100% 30.17 in 0.8 mi Variable 4.6 mph - 0.22 in Rain Rain
9:20 AM 46.4 °F 43.5 °F 46.4 °F 100% 30.18 in 0.2 mi Variable 5.8 mph - 0.12 in Fog , Rain Rain
9:44 AM 46.4 °F 42.4 °F 46.4 °F 100% 30.15 in 0.8 mi SE 8.1 mph - 0.20 in Rain Rain
9:48 AM 46.4 °F 42.4 °F 46.4 °F 100% 30.16 in 1.2 mi SSE 8.1 mph - 0.20 in Rain Rain
9:56 AM 46.9 °F - 46.9 °F 100% 30.18 in 0.5 mi South 8.1 mph - 0.21 in Fog , Rain Rain
10:04 AM 46.4 °F 43.5 °F 46.4 °F 100% 30.17 in 0.2 mi Variable 5.8 mph - 0.01 in Fog , Rain Light Rain
10:26 AM 48.2 °F - 48.2 °F 100% 30.18 in 0.2 mi South 5.8 mph - 0.06 in Fog , Rain Rain
11:16 AM 46.4 °F 44.3 °F 46.4 °F 100% 30.18 in 0.2 mi SE 4.6 mph - 0.04 in Fog , Rain Light Rain
11:49 AM 46.4 °F 42.9 °F 46.4 °F 100% 30.16 in 0.2 mi SSE 6.9 mph - 0.08 in Fog , Rain Light Rain
11:56 AM 46.9 °F - 46.9 °F 100% 30.16 in 0.2 mi SE 8.1 mph - 0.09 in Fog , Rain Light Rain
12:05 PM 46.4 °F 42.4 °F 46.4 °F 100% 30.15 in 0.2 mi SE 8.1 mph - 0.01 in Fog , Rain Light Rain
12:38 PM 48.2 °F - 48.2 °F 100% 30.13 in 0.2 mi Variable 4.6 mph - 0.04 in Fog , Rain Light Rain
12:56 PM 47.8 °F - 47.8 °F 100% 30.13 in 0.2 mi SSE 8.1 mph - 0.06 in Fog , Rain Light Rain
1:56 PM 47.8 °F - 47.8 °F 100% 30.11 in 0.2 mi South 8.1 mph - 0.03 in Fog , Rain Light Rain
2:56 PM 47.8 °F - 47.8 °F 100% 30.09 in 0.2 mi Variable 5.8 mph - 0.06 in Fog , Rain Light Rain
3:56 PM 47.8 °F - 47.8 °F 100% 30.09 in 0.2 mi South 6.9 mph - 0.11 in Fog , Rain Rain
4:56 PM 47.8 °F - 47.8 °F 100% 30.08 in 0.2 mi South 9.2 mph - 0.09 in Fog , Rain Light Rain
5:56 PM 47.8 °F - - N/A% 30.08 in 0.2 mi South 4.6 mph - 0.00 in Fog Fog
6:56 PM 47.8 °F - - N/A% 30.07 in 0.2 mi Variable 4.6 mph - 0.00 in Fog Fog
7:41 PM 48.2 °F - - N/A% 30.06 in 0.2 mi NNW 5.8 mph - 0.00 in Fog Fog
7:56 PM 46.9 °F - - N/A% 30.07 in 0.5 mi NW 6.9 mph - 0.00 in Rain Light Rain
8:03 PM 46.4 °F 42.4 °F - N/A% 30.06 in 1.0 mi NNW 8.1 mph - 0.00 in Rain Light Rain
8:07 PM 46.4 °F 43.5 °F - N/A% 30.06 in 1.5 mi NNW 5.8 mph - 0.00 in Rain Light Rain
8:16 PM 46.4 °F 44.3 °F - N/A% 30.06 in 2.5 mi NNW 4.6 mph - 0.00 in   Overcast
8:26 PM 46.4 °F 44.3 °F - N/A% 30.06 in 5.0 mi NNW 4.6 mph - 0.00 in   Haze
8:56 PM 45.9 °F 43.6 °F - N/A% 30.07 in 5.0 mi NW 4.6 mph - 0.00 in   Haze
9:03 PM 46.4 °F 45.2 °F - N/A% 30.06 in 1.8 mi NW 3.5 mph - N/A   Overcast
9:07 PM 46.4 °F 45.2 °F - N/A% 30.06 in 1.0 mi NW 3.5 mph - N/A   Overcast
9:11 PM 46.4 °F 45.2 °F - N/A% 30.06 in 0.5 mi Variable 3.5 mph - N/A Fog Fog
9:45 PM 46.4 °F - - N/A% 30.06 in 0.2 mi Calm Calm - N/A Fog Fog
9:56 PM 45.9 °F - - N/A% 30.08 in 0.2 mi Calm Calm - N/A Fog Fog
10:11 PM 44.6 °F - - N/A% 30.07 in 0.2 mi Calm Calm - N/A Fog Fog
10:33 PM 44.6 °F - - N/A% 30.08 in 0.2 mi Calm Calm - N/A Fog Fog
10:41 PM 44.6 °F - - N/A% 30.08 in 0.5 mi Calm Calm - N/A Fog Fog
10:45 PM 44.6 °F - - N/A% 30.08 in 1.0 mi Calm Calm - N/A   Overcast
10:47 PM 44.6 °F - - N/A% 30.08 in 1.5 mi Calm Calm - N/A   Overcast
10:56 PM 45.0 °F - - N/A% 30.09 in 1.8 mi Calm Calm - N/A   Overcast
11:04 PM 44.6 °F 42.2 °F - N/A% 30.09 in 3.0 mi SSE 4.6 mph - N/A   Overcast
11:07 PM 44.6 °F 43.1 °F - N/A% 30.09 in 1.5 mi South 3.5 mph - N/A   Overcast
11:09 PM 44.6 °F 42.2 °F - N/A% 30.09 in 0.8 mi South 4.6 mph - N/A   Overcast
11:19 PM 44.6 °F 43.1 °F - N/A% 30.09 in 1.2 mi Variable 3.5 mph - N/A   Overcast
11:21 PM 44.6 °F - - N/A% 30.09 in 2.5 mi Calm Calm - N/A   Overcast
11:28 PM 44.6 °F - - N/A% 30.09 in 4.0 mi Calm Calm - N/A   Haze
11:42 PM 44.6 °F - - N/A% 30.10 in 1.8 mi Calm Calm - N/A   Overcast
11:56 PM 43.9 °F - - N/A% 30.11 in 2.5 mi Calm Calm - N/A   Overcast
11:58 PM 44.6 °F - - N/A% 30.10 in 4.0 mi Calm Calm - N/A   Haze